カタログに戻る

ORB-12 STRIDER

Lost科学VLEO
NORAD 57483·PAYLOAD·🇬🇧 United Kingdom

打ち上げ Jul 30, 2023 から Satish Dhawan Space Centre

Loading…

次のパス (今後24時間)

TLE

古いSource: Space-Track

元期: Jan 10, 2024, 19:03 UTC

1 57483U 23109C   24010.79410534  .00010603  00000-0  49907-3 0  9994
2 57483   5.0027 110.8465 0013742 325.2209  34.7002 15.15065068 25008

AllMySatでORB-12 STRIDERをリアルタイム追跡

Download on the App Store